Location: Sihaung
(22.8641°N, 94.0549°E)
Time: 12:41:28
(UTC+00:00)

Cosmos 2333 Rocket - Pass Details

Date: 03 March 2021
Orbit: 837 x 864 km, 70.8° (Epoch: 11 April)

Event Time Altitude Azimuth Distance (km) Brightness Sun altitude
Rises 13:35:05 0° 215° (SW) 3,378 5.7 -25.4°
Reaches altitude 10° 13:37:39 10° 222° (SW) 2,448 5.1 -26.0°
Maximum altitude 13:42:53 40° 291° (WNW) 1,223 3.4 -27.2°
Drops below altitude 10° 13:48:11 10° 0° (N) 2,470 4.7 -28.4°
Sets 13:50:48 0° 8° (N) 3,412 5.3 -29.0°
